Flag for Costa Rica Weather past 2 weeks in Alajuela, Costa Rica

Now
72 °F

Light rain. Partly sunny.


Feels Like: 71 °F
Forecast: 70 / 79 °F
Wind: 13 mph from East

Location: Juan Santamaria

Current Time: Jul 6, 2015 at 10:50:54 AM

Latest Report: Jul 6, 2015 at 10:00 AM


Visibility: N/A

Pressure: 30.04 "Hg (26.90 "Hg at 955m altitude)

Humidity: 83%

Dew point: 66 °F

Location of AlajuelaLocation

Historic Weather in Alajuela — Graph

°F

Alajuela temperature yesterday

Maximum temperature yesterday: 86 °F (at 1:00 PM)
Minimum temperature yesterday: 72 °F (at 8:00 PM)
Average temperature yesterday: 77 °F

Past Weeks' High & Low Weather Summary

 TemperatureHumidityPressure
High88 °F (Jun 24, 12:00 PM)94% (Jun 29, 10:00 PM)30.08 "Hg (Jun 29, 10:00 PM)
Low70 °F (Jun 21, 5:00 PM)43% (Jun 24, 12:00 PM)29.88 "Hg (Jul 3, 3:00 AM)
Average76 °F67%29.97 "Hg
* Reported Jun 21 9:00 AM — Jul 6 9:00 AM, Alajuela, Weather by CustomWeather, © 2015

Note: Actual official high and low records may vary slightly from our data, if they occured in-between our weather recording intervals... More about our weather records

Advertising

Alajuela weather history for previous 24 hours

 ConditionsComfort  
Time TempWeatherWind HumidityBarometerVisibility
9:00 AM
Mon, Jul 6
70 °FLight rain. Fog.10 mph88%30.04 "Hg5 mi
8:00 AM73 °FLight rain. Partly sunny.12 mph78%30.02 "HgN/A
7:00 AM73 °FBroken clouds.17 mph74%30.00 "HgN/A
6:00 AM73 °FPartly sunny.13 mph74%29.98 "HgN/A
5:00 AM72 °FPassing clouds.12 mph78%29.96 "HgN/A
4:00 AM72 °FPassing clouds.8 mph78%29.98 "HgN/A
3:00 AM72 °FPassing clouds.6 mph78%29.98 "HgN/A
2:00 AM72 °FLight rain. Passing clouds.7 mph83%30.01 "HgN/A
1:00 AM73 °FLight rain. Passing clouds.12 mph74%30.02 "HgN/A
12:00 AM73 °FPassing clouds.13 mph74%30.01 "HgN/A
11:00 PM
Sun, Jul 5
72 °FPassing clouds.6 mph78%30.01 "HgN/A
10:00 PM73 °FPassing clouds.6 mph74%30.03 "HgN/A
9:00 PM72 °FPassing clouds.14 mph78%30.03 "HgN/A
8:00 PM72 °FPassing clouds.7 mph88%30.02 "HgN/A
7:00 PM73 °FPassing clouds.10 mph78%30.01 "HgN/A
6:00 PM75 °FScattered clouds.6 mph78%29.99 "HgN/A
5:00 PM75 °FScattered showers. Broken clouds.8 mph78%29.99 "HgN/A
4:00 PM79 °FBroken clouds.7 mph58%29.95 "HgN/A
3:00 PM82 °FBroken clouds.9 mph51%29.96 "HgN/A
2:00 PM86 °FBroken clouds.10 mph46%29.96 "HgN/A
1:00 PM86 °FBroken clouds.12 mph46%29.98 "HgN/A
12:00 PM84 °FBroken clouds.13 mph51%30.00 "HgN/A
11:00 AM84 °FPartly sunny.13 mph55%30.01 "HgN/A
10:00 AM81 °FPartly sunny.14 mph58%30.01 "HgN/A
Weather by CustomWeather, © 2015

See weather overviewHow to use our weather pages